Year,Month,Day,Hour,Minute,Value (Times are PST for temperature in C)
2014,10,08,00,00,11.70
2014,10,08,00,01,11.70
2014,10,08,00,02,11.70
2014,10,08,00,03,11.60
2014,10,08,00,04,11.60
2014,10,08,00,05,11.60
2014,10,08,00,06,11.60
2014,10,08,00,07,11.60
2014,10,08,00,08,11.50
2014,10,08,00,09,11.50
2014,10,08,00,10,11.50
2014,10,08,00,11,11.50
2014,10,08,00,12,11.50
2014,10,08,00,13,11.40
2014,10,08,00,14,11.40
2014,10,08,00,15,11.30
2014,10,08,00,16,11.30
2014,10,08,00,17,11.20
2014,10,08,00,18,11.20
2014,10,08,00,19,11.20
2014,10,08,00,20,11.10
2014,10,08,00,21,11.10
2014,10,08,00,22,11.10
2014,10,08,00,23,11.10
2014,10,08,00,24,11.10
2014,10,08,00,25,11.00
2014,10,08,00,26,11.00
2014,10,08,00,27,11.00
2014,10,08,00,28,11.00
2014,10,08,00,29,11.00
2014,10,08,00,30,11.00
2014,10,08,00,31,11.00
2014,10,08,00,32,11.00
2014,10,08,00,33,11.00
2014,10,08,00,34,10.90
2014,10,08,00,35,10.90
2014,10,08,00,36,10.90
2014,10,08,00,37,10.90
2014,10,08,00,38,10.90
2014,10,08,00,39,10.90
2014,10,08,00,40,10.90
2014,10,08,00,41,10.90
2014,10,08,00,42,10.90
2014,10,08,00,43,10.90
2014,10,08,00,44,10.90
2014,10,08,00,45,10.90
2014,10,08,00,46,10.90
2014,10,08,00,47,10.90
2014,10,08,00,48,11.00
2014,10,08,00,49,11.00
2014,10,08,00,50,11.00
2014,10,08,00,51,11.00
2014,10,08,00,52,11.00
2014,10,08,00,53,11.00
2014,10,08,00,54,11.00
2014,10,08,00,55,11.00
2014,10,08,00,56,11.00
2014,10,08,00,57,10.90
2014,10,08,00,58,10.90
2014,10,08,00,59,10.90
2014,10,08,01,00,10.90
2014,10,08,01,01,10.90
2014,10,08,01,02,10.90
2014,10,08,01,03,10.90
2014,10,08,01,04,10.90
2014,10,08,01,05,10.90
2014,10,08,01,06,10.90
2014,10,08,01,07,10.90
2014,10,08,01,08,10.90
2014,10,08,01,09,10.90
2014,10,08,01,10,10.90
2014,10,08,01,11,10.90
2014,10,08,01,12,10.90
2014,10,08,01,13,10.90
2014,10,08,01,14,10.90
2014,10,08,01,15,10.90
2014,10,08,01,16,10.90
2014,10,08,01,17,10.90
2014,10,08,01,18,10.90
2014,10,08,01,19,10.90
2014,10,08,01,20,10.90
2014,10,08,01,21,10.90
2014,10,08,01,22,10.90
2014,10,08,01,23,10.90
2014,10,08,01,24,11.00
2014,10,08,01,25,11.00
2014,10,08,01,26,10.90
2014,10,08,01,27,10.90
2014,10,08,01,28,10.90
2014,10,08,01,29,10.90
2014,10,08,01,30,10.90
2014,10,08,01,31,10.90
2014,10,08,01,32,10.90
2014,10,08,01,33,10.90
2014,10,08,01,34,10.90
2014,10,08,01,35,10.90
2014,10,08,01,36,10.90
2014,10,08,01,37,10.90
2014,10,08,01,38,10.90
2014,10,08,01,39,11.00
2014,10,08,01,40,10.90
2014,10,08,01,41,10.90
2014,10,08,01,42,11.00
2014,10,08,01,43,10.90
2014,10,08,01,44,11.00
2014,10,08,01,45,11.00
2014,10,08,01,46,11.00
2014,10,08,01,47,11.00
2014,10,08,01,48,11.00
2014,10,08,01,49,11.00
2014,10,08,01,50,11.00
2014,10,08,01,51,11.00
2014,10,08,01,52,10.90
2014,10,08,01,53,11.00
2014,10,08,01,54,11.00
2014,10,08,01,55,11.00
2014,10,08,01,56,10.90
2014,10,08,01,57,10.90
2014,10,08,01,58,10.90
2014,10,08,01,59,10.90
2014,10,08,02,00,10.90
2014,10,08,02,01,10.90
2014,10,08,02,02,10.90
2014,10,08,02,03,10.90
2014,10,08,02,04,10.90
2014,10,08,02,05,10.90
2014,10,08,02,06,10.90
2014,10,08,02,07,10.90
2014,10,08,02,08,10.90
2014,10,08,02,09,10.90
2014,10,08,02,10,10.90
2014,10,08,02,11,10.90
2014,10,08,02,12,10.90
2014,10,08,02,13,10.90
2014,10,08,02,14,10.90
2014,10,08,02,15,10.90
2014,10,08,02,16,10.90
2014,10,08,02,17,10.90
2014,10,08,02,18,10.90
2014,10,08,02,19,10.90
2014,10,08,02,20,10.90
2014,10,08,02,21,10.90
2014,10,08,02,22,10.90
2014,10,08,02,23,10.90
2014,10,08,02,24,10.90
2014,10,08,02,25,10.90
2014,10,08,02,26,10.90
2014,10,08,02,27,10.90
2014,10,08,02,28,11.00
2014,10,08,02,29,11.00
2014,10,08,02,30,11.00
2014,10,08,02,31,11.00
2014,10,08,02,32,11.00
2014,10,08,02,33,11.00
2014,10,08,02,34,11.00
2014,10,08,02,35,11.00
2014,10,08,02,36,11.00
2014,10,08,02,37,11.00
2014,10,08,02,38,11.00
2014,10,08,02,39,11.00
2014,10,08,02,40,11.10
2014,10,08,02,41,11.10
2014,10,08,02,42,11.10
2014,10,08,02,43,11.10
2014,10,08,02,44,11.10
2014,10,08,02,45,11.10
2014,10,08,02,46,11.10
2014,10,08,02,47,11.10
2014,10,08,02,48,11.20
2014,10,08,02,49,11.20
2014,10,08,02,50,11.20
2014,10,08,02,51,11.20
2014,10,08,02,52,11.20
2014,10,08,02,53,11.20
2014,10,08,02,54,11.20
2014,10,08,02,55,11.20
2014,10,08,02,56,11.20
2014,10,08,02,57,11.30
2014,10,08,02,58,11.30
2014,10,08,02,59,11.30
2014,10,08,03,00,11.30
2014,10,08,03,01,11.30
2014,10,08,03,02,11.30
2014,10,08,03,06,11.30
2014,10,08,03,07,11.40
2014,10,08,03,08,11.40
2014,10,08,03,09,11.40
2014,10,08,03,10,11.40
2014,10,08,03,11,11.40
2014,10,08,03,12,11.40
2014,10,08,03,13,11.40
2014,10,08,03,14,11.40
2014,10,08,03,15,11.40
2014,10,08,03,16,11.40
2014,10,08,03,17,11.40
2014,10,08,03,18,11.40
2014,10,08,03,19,11.40
2014,10,08,03,20,11.40
2014,10,08,03,21,11.40
2014,10,08,03,22,11.40
2014,10,08,03,23,11.40
2014,10,08,03,24,11.40
2014,10,08,03,25,11.40
2014,10,08,03,26,11.40
2014,10,08,03,27,11.40
2014,10,08,03,28,11.40
2014,10,08,03,29,11.40
2014,10,08,03,30,11.40
2014,10,08,03,31,11.40
2014,10,08,03,32,11.40
2014,10,08,03,33,11.40
2014,10,08,03,34,11.40
2014,10,08,03,35,11.40
2014,10,08,03,36,11.40
2014,10,08,03,37,11.40
2014,10,08,03,38,11.40
2014,10,08,03,39,11.40
2014,10,08,03,40,11.40
2014,10,08,03,41,11.30
2014,10,08,03,42,11.40
2014,10,08,03,43,11.40
2014,10,08,03,44,11.40
2014,10,08,03,45,11.40
2014,10,08,03,46,11.40
2014,10,08,03,47,11.40
2014,10,08,03,48,11.40
2014,10,08,03,49,11.40
2014,10,08,03,50,11.40
2014,10,08,03,51,11.40
2014,10,08,03,52,11.40
2014,10,08,03,53,11.40
2014,10,08,03,54,11.40
2014,10,08,03,55,11.40
2014,10,08,03,56,11.40
2014,10,08,03,57,11.40
2014,10,08,03,58,11.40
2014,10,08,03,59,11.40
2014,10,08,04,00,11.40
2014,10,08,04,01,11.40
2014,10,08,04,02,11.40
2014,10,08,04,03,11.40
2014,10,08,04,04,11.40
2014,10,08,04,05,11.40
2014,10,08,04,06,11.40
2014,10,08,04,07,11.40
2014,10,08,04,08,11.40
2014,10,08,04,09,11.40
2014,10,08,04,10,11.40
2014,10,08,04,11,11.40
2014,10,08,04,12,11.40
2014,10,08,04,13,11.40
2014,10,08,04,14,11.40
2014,10,08,04,15,11.40
2014,10,08,04,16,11.40
2014,10,08,04,17,11.40
2014,10,08,04,18,11.40
2014,10,08,04,19,11.40
2014,10,08,04,20,11.30
2014,10,08,04,21,11.40
2014,10,08,04,22,11.40
2014,10,08,04,23,11.40
2014,10,08,04,24,11.40
2014,10,08,04,25,11.40
2014,10,08,04,26,11.40
2014,10,08,04,27,11.40
2014,10,08,04,28,11.40
2014,10,08,04,29,11.40
2014,10,08,04,30,11.40
2014,10,08,04,31,11.40
2014,10,08,04,32,11.40
2014,10,08,04,33,11.40
2014,10,08,04,34,11.40
2014,10,08,04,35,11.40
2014,10,08,04,36,11.40
2014,10,08,04,37,11.40
2014,10,08,04,38,11.40
2014,10,08,04,39,11.40
2014,10,08,04,40,11.40
2014,10,08,04,41,11.40
2014,10,08,04,42,11.40
2014,10,08,04,43,11.40
2014,10,08,04,44,11.40
2014,10,08,04,45,11.40
2014,10,08,04,46,11.40
2014,10,08,04,47,11.40
2014,10,08,04,48,11.40
2014,10,08,04,49,11.40
2014,10,08,04,50,11.40
2014,10,08,04,51,11.40
2014,10,08,04,52,11.40
2014,10,08,04,53,11.40
2014,10,08,04,54,11.40
2014,10,08,04,55,11.40
2014,10,08,04,56,11.40
2014,10,08,04,57,11.30
2014,10,08,04,58,11.30
2014,10,08,04,59,11.30
2014,10,08,05,00,11.30
2014,10,08,05,01,11.30
2014,10,08,05,02,11.30
2014,10,08,05,03,11.30
2014,10,08,05,04,11.20
2014,10,08,05,05,11.20
2014,10,08,05,06,11.20
2014,10,08,05,07,11.20
2014,10,08,05,08,11.20
2014,10,08,05,09,11.20
2014,10,08,05,10,11.20
2014,10,08,05,11,11.10
2014,10,08,05,12,11.10
2014,10,08,05,13,11.10
2014,10,08,05,14,11.10
2014,10,08,05,15,11.10
2014,10,08,05,16,11.10
2014,10,08,05,17,11.10
2014,10,08,05,18,11.00
2014,10,08,05,19,11.00
2014,10,08,05,20,11.00
2014,10,08,05,21,10.90
2014,10,08,05,22,10.90
2014,10,08,05,23,10.90
2014,10,08,05,24,10.90
2014,10,08,05,25,10.90
2014,10,08,05,26,10.80
2014,10,08,05,27,10.80
2014,10,08,05,28,10.80
2014,10,08,05,29,10.80
2014,10,08,05,30,10.80
2014,10,08,05,31,10.80
2014,10,08,05,32,10.80
2014,10,08,05,33,10.70
2014,10,08,05,34,10.70
2014,10,08,05,35,10.70
2014,10,08,05,36,10.70
2014,10,08,05,37,10.70
2014,10,08,05,38,10.70
2014,10,08,05,39,10.70
2014,10,08,05,40,10.60
2014,10,08,05,41,10.60
2014,10,08,05,42,10.60
2014,10,08,05,43,10.60
2014,10,08,05,44,10.60
2014,10,08,05,45,10.60
2014,10,08,05,46,10.50
2014,10,08,05,47,10.50
2014,10,08,05,48,10.50
2014,10,08,05,49,10.50
2014,10,08,05,50,10.50
2014,10,08,05,51,10.40
2014,10,08,05,52,10.40
2014,10,08,05,53,10.40
2014,10,08,05,54,10.40
2014,10,08,05,55,10.40
2014,10,08,05,56,10.40
2014,10,08,05,57,10.40
2014,10,08,05,58,10.40
2014,10,08,05,59,10.30
2014,10,08,06,00,10.30
2014,10,08,06,01,10.30
2014,10,08,06,02,10.30
2014,10,08,06,03,10.30
2014,10,08,06,04,10.30
2014,10,08,06,05,10.30
2014,10,08,06,06,10.30
2014,10,08,06,07,10.30
2014,10,08,06,08,10.30
2014,10,08,06,09,10.30
2014,10,08,06,10,10.30
2014,10,08,06,11,10.40
2014,10,08,06,12,10.40
2014,10,08,06,13,10.40
2014,10,08,06,14,10.40
2014,10,08,06,15,10.40
2014,10,08,06,16,10.40
2014,10,08,06,17,10.40
2014,10,08,06,18,10.40
2014,10,08,06,19,10.40
2014,10,08,06,20,10.40
2014,10,08,06,21,10.40
2014,10,08,06,22,10.40
2014,10,08,06,23,10.40
2014,10,08,06,24,10.40
2014,10,08,06,25,10.40
2014,10,08,06,26,10.40
2014,10,08,06,27,10.40
2014,10,08,06,28,10.40
2014,10,08,06,29,10.40
2014,10,08,06,30,10.40
2014,10,08,06,31,10.40
2014,10,08,06,32,10.40
2014,10,08,06,33,10.40
2014,10,08,06,34,10.40
2014,10,08,06,35,10.40
2014,10,08,06,36,10.40
2014,10,08,06,37,10.40
2014,10,08,06,38,10.40
2014,10,08,06,39,10.40
2014,10,08,06,40,10.40
2014,10,08,06,41,10.40
2014,10,08,06,42,10.40
2014,10,08,06,43,10.40
2014,10,08,06,44,10.50
2014,10,08,06,45,10.40
2014,10,08,06,46,10.40
2014,10,08,06,47,10.50
2014,10,08,06,48,10.50
2014,10,08,06,49,10.40
2014,10,08,06,50,10.50
2014,10,08,06,51,10.40
2014,10,08,06,52,10.50
2014,10,08,06,53,10.40
2014,10,08,06,54,10.40
2014,10,08,06,55,10.40
2014,10,08,06,56,10.50
2014,10,08,06,57,10.40
2014,10,08,06,58,10.40
2014,10,08,06,59,10.40
2014,10,08,07,00,10.40
2014,10,08,07,01,10.50
2014,10,08,07,02,10.40
2014,10,08,07,03,10.50
2014,10,08,07,04,10.50
2014,10,08,07,05,10.50
2014,10,08,07,06,10.50
2014,10,08,07,07,10.50
2014,10,08,07,08,10.50
2014,10,08,07,09,10.50
2014,10,08,07,10,10.50
2014,10,08,07,11,10.50
2014,10,08,07,12,10.50
2014,10,08,07,13,10.50
2014,10,08,07,14,10.50
2014,10,08,07,15,10.60
2014,10,08,07,16,10.60
2014,10,08,07,17,10.60
2014,10,08,07,18,10.60
2014,10,08,07,19,10.60
2014,10,08,07,20,10.60
2014,10,08,07,21,10.60
2014,10,08,07,22,10.60
2014,10,08,07,23,10.60
2014,10,08,07,24,10.60
2014,10,08,07,25,10.60
2014,10,08,07,26,10.60
2014,10,08,07,27,10.70
2014,10,08,07,28,10.70
2014,10,08,07,29,10.70
2014,10,08,07,30,10.70
2014,10,08,07,31,10.70
2014,10,08,07,32,10.80
2014,10,08,07,33,10.80
2014,10,08,07,34,10.80
2014,10,08,07,35,10.80
2014,10,08,07,36,10.80
2014,10,08,07,37,10.80
2014,10,08,07,38,10.80
2014,10,08,07,39,10.90
2014,10,08,07,40,10.90
2014,10,08,07,41,10.90
2014,10,08,07,42,10.90
2014,10,08,07,43,10.90
2014,10,08,07,44,10.90
2014,10,08,07,45,10.90
2014,10,08,07,46,10.90
2014,10,08,07,47,10.90
2014,10,08,07,48,10.90
2014,10,08,07,49,10.90
2014,10,08,07,50,10.90
2014,10,08,07,51,11.00
2014,10,08,07,52,11.00
2014,10,08,07,53,11.00
2014,10,08,07,54,11.00
2014,10,08,07,55,11.00
2014,10,08,07,56,11.00
2014,10,08,07,57,11.00
2014,10,08,07,58,11.10
2014,10,08,07,59,11.10
2014,10,08,08,00,11.10
2014,10,08,08,01,11.10
2014,10,08,08,02,11.10
2014,10,08,08,03,11.10
2014,10,08,08,04,11.10
2014,10,08,08,05,11.10
2014,10,08,08,06,11.10
2014,10,08,08,07,11.10
2014,10,08,08,08,11.20
2014,10,08,08,09,11.20
2014,10,08,08,10,11.20
2014,10,08,08,11,11.20
2014,10,08,08,12,11.20
2014,10,08,08,13,11.20
2014,10,08,08,14,11.20
2014,10,08,08,15,11.20
2014,10,08,08,16,11.20
2014,10,08,08,17,11.20
2014,10,08,08,18,11.20
2014,10,08,08,19,11.20
2014,10,08,08,20,11.30
2014,10,08,08,21,11.30
2014,10,08,08,22,11.30
2014,10,08,08,23,11.30
2014,10,08,08,24,11.30
2014,10,08,08,25,11.30
2014,10,08,08,26,11.30
2014,10,08,08,27,11.30
2014,10,08,08,28,11.30
2014,10,08,08,29,11.30
2014,10,08,08,30,11.30
2014,10,08,08,31,11.30
2014,10,08,08,32,11.30
2014,10,08,08,33,11.30
2014,10,08,08,34,11.30
2014,10,08,08,35,11.30
2014,10,08,08,36,11.30
2014,10,08,08,37,11.30
2014,10,08,08,38,11.30
2014,10,08,08,39,11.30
2014,10,08,08,40,11.30
2014,10,08,08,41,11.30
2014,10,08,08,42,11.30
2014,10,08,08,43,11.30
2014,10,08,08,44,11.30
2014,10,08,08,45,11.30
2014,10,08,08,46,11.30
2014,10,08,08,47,11.30
2014,10,08,08,48,11.30
2014,10,08,08,49,11.30
2014,10,08,08,50,11.30
2014,10,08,08,51,11.30
2014,10,08,08,52,11.30
2014,10,08,08,53,11.30
2014,10,08,08,54,11.30
2014,10,08,08,55,11.40
2014,10,08,08,56,11.40
2014,10,08,08,57,11.40
2014,10,08,08,58,11.40
2014,10,08,08,59,11.40
2014,10,08,09,00,11.40
2014,10,08,09,01,11.40
2014,10,08,09,02,11.40
2014,10,08,09,03,11.40
2014,10,08,09,04,11.40
2014,10,08,09,05,11.40
2014,10,08,09,06,11.40
2014,10,08,09,07,11.30
2014,10,08,09,08,11.30
2014,10,08,09,09,11.30
2014,10,08,09,10,11.30
2014,10,08,09,11,11.30
2014,10,08,09,12,11.30
2014,10,08,09,13,11.30
2014,10,08,09,14,11.30
2014,10,08,09,15,11.30
2014,10,08,09,16,11.40
2014,10,08,09,17,11.40
2014,10,08,09,18,11.40
2014,10,08,09,19,11.40
2014,10,08,09,20,11.40
2014,10,08,09,21,11.40
2014,10,08,09,22,11.40
2014,10,08,09,23,11.40
2014,10,08,09,24,11.40
2014,10,08,09,25,11.40
2014,10,08,09,26,11.40
2014,10,08,09,27,11.40
2014,10,08,09,28,11.40
2014,10,08,09,29,11.50
2014,10,08,09,30,11.50
2014,10,08,09,31,11.50
2014,10,08,09,32,11.50
2014,10,08,09,33,11.50
2014,10,08,09,34,11.50
2014,10,08,09,35,11.50
2014,10,08,09,36,11.50
2014,10,08,09,37,11.50
2014,10,08,09,38,11.60
2014,10,08,09,39,11.60
2014,10,08,09,40,11.60
2014,10,08,09,41,11.60
2014,10,08,09,42,11.60
2014,10,08,09,43,11.60
2014,10,08,09,44,11.60
2014,10,08,09,45,11.60
2014,10,08,09,46,11.60
2014,10,08,09,47,11.60
2014,10,08,09,48,11.60
2014,10,08,09,49,11.60
2014,10,08,09,50,11.60
2014,10,08,09,51,11.60
2014,10,08,09,52,11.60
2014,10,08,09,53,11.60
2014,10,08,09,54,11.60
2014,10,08,09,55,11.60
2014,10,08,09,56,11.60
2014,10,08,09,57,11.60
2014,10,08,09,58,11.60
2014,10,08,09,59,11.60
2014,10,08,10,00,11.60
2014,10,08,10,01,11.60
2014,10,08,10,02,11.60
2014,10,08,10,03,11.60
2014,10,08,10,04,11.70
2014,10,08,10,05,11.70
2014,10,08,10,06,11.70
2014,10,08,10,07,11.80
2014,10,08,10,08,11.80
2014,10,08,10,09,11.80
2014,10,08,10,10,11.80
2014,10,08,10,11,11.90
2014,10,08,10,12,11.90
2014,10,08,10,13,11.90
2014,10,08,10,14,11.90
2014,10,08,10,15,11.90
2014,10,08,10,16,12.00
2014,10,08,10,17,12.00
2014,10,08,10,18,12.00
2014,10,08,10,19,12.10
2014,10,08,10,20,12.10
2014,10,08,10,21,12.10
2014,10,08,10,22,12.20
2014,10,08,10,23,12.20
2014,10,08,10,24,12.20
2014,10,08,10,25,12.30
2014,10,08,10,26,12.30
2014,10,08,10,27,12.30
2014,10,08,10,28,12.40
2014,10,08,10,29,12.40
2014,10,08,10,30,12.40
2014,10,08,10,31,12.50
2014,10,08,10,32,12.50
2014,10,08,10,33,12.60
2014,10,08,10,34,12.60
2014,10,08,10,35,12.60
2014,10,08,10,36,12.70
2014,10,08,10,37,12.70
2014,10,08,10,38,12.70
2014,10,08,10,39,12.70
2014,10,08,10,40,12.80
2014,10,08,10,41,12.80
2014,10,08,10,42,12.80
2014,10,08,10,43,12.80
2014,10,08,10,44,12.80
2014,10,08,10,45,12.80
2014,10,08,10,46,12.90
2014,10,08,10,47,12.90
2014,10,08,10,48,12.90
2014,10,08,10,49,12.90
2014,10,08,10,50,13.00
2014,10,08,10,51,13.00
2014,10,08,10,52,13.00
2014,10,08,10,53,13.00
2014,10,08,10,54,13.00
2014,10,08,10,55,13.10
2014,10,08,10,56,13.10
2014,10,08,10,57,13.10
2014,10,08,10,58,13.10
2014,10,08,10,59,13.10
2014,10,08,11,00,13.10
2014,10,08,11,01,13.20
2014,10,08,11,02,13.20
2014,10,08,11,03,13.20
2014,10,08,11,04,13.20
2014,10,08,11,05,13.20
2014,10,08,11,06,13.20
2014,10,08,11,07,13.20
2014,10,08,11,08,13.20
2014,10,08,11,09,13.20
2014,10,08,11,10,13.20
2014,10,08,11,11,13.20
2014,10,08,11,12,13.20
2014,10,08,11,13,13.30
2014,10,08,11,14,13.30
2014,10,08,11,15,13.30
2014,10,08,11,16,13.30
2014,10,08,11,17,13.30
2014,10,08,11,18,13.30
2014,10,08,11,19,13.30
2014,10,08,11,20,13.30
2014,10,08,11,21,13.30
2014,10,08,11,22,13.30
2014,10,08,11,23,13.30
2014,10,08,11,24,13.30
2014,10,08,11,25,13.30
2014,10,08,11,26,13.30
2014,10,08,11,27,13.30
2014,10,08,11,28,13.30
2014,10,08,11,29,13.40
2014,10,08,11,30,13.40
2014,10,08,11,31,13.40
2014,10,08,11,32,13.40
2014,10,08,11,33,13.40
2014,10,08,11,34,13.40
2014,10,08,11,35,13.40
2014,10,08,11,36,13.50
2014,10,08,11,37,13.50
2014,10,08,11,38,13.50
2014,10,08,11,39,13.60
2014,10,08,11,40,13.60
2014,10,08,11,41,13.60
2014,10,08,11,42,13.70
2014,10,08,11,43,13.70
2014,10,08,11,44,13.70
2014,10,08,11,45,13.80
2014,10,08,11,46,13.80
2014,10,08,11,47,13.80
2014,10,08,11,48,13.90
2014,10,08,11,49,13.90
2014,10,08,11,50,13.90
2014,10,08,11,51,13.90
2014,10,08,11,52,14.00
2014,10,08,11,53,14.00
2014,10,08,11,54,14.00
2014,10,08,11,55,14.10
2014,10,08,11,56,14.10
2014,10,08,11,57,14.10
2014,10,08,11,58,14.10
2014,10,08,11,59,14.10
2014,10,08,12,00,14.10
2014,10,08,12,01,14.20
2014,10,08,12,02,14.20
2014,10,08,12,03,14.20
2014,10,08,12,04,14.20
2014,10,08,12,05,14.20
2014,10,08,12,06,14.20
2014,10,08,12,07,14.20
2014,10,08,12,08,14.20
2014,10,08,12,09,14.20
2014,10,08,12,10,14.30
2014,10,08,12,11,14.30
2014,10,08,12,12,14.30
2014,10,08,12,13,14.30
2014,10,08,12,14,14.30
2014,10,08,12,15,14.30
2014,10,08,12,16,14.40
2014,10,08,12,17,14.40
2014,10,08,12,18,14.40
2014,10,08,12,19,14.40
2014,10,08,12,20,14.40
2014,10,08,12,21,14.40
2014,10,08,12,22,14.40
2014,10,08,12,23,14.40
2014,10,08,12,24,14.40
2014,10,08,12,25,14.40
2014,10,08,12,26,14.50
2014,10,08,12,27,14.50
2014,10,08,12,28,14.50
2014,10,08,12,29,14.50
2014,10,08,12,30,14.60
2014,10,08,12,31,14.60
2014,10,08,12,32,14.60
2014,10,08,12,33,14.60
2014,10,08,12,34,14.60
2014,10,08,12,35,14.60
2014,10,08,12,36,14.60
2014,10,08,12,37,14.70
2014,10,08,12,38,14.70
2014,10,08,12,39,14.70
2014,10,08,12,40,14.70
2014,10,08,12,41,14.80
2014,10,08,12,42,14.80
2014,10,08,12,43,14.80
2014,10,08,12,44,14.80
2014,10,08,12,45,14.80
2014,10,08,12,46,14.90
2014,10,08,12,47,14.90
2014,10,08,12,48,14.90
2014,10,08,12,49,14.90
2014,10,08,12,50,15.00
2014,10,08,12,51,15.00
2014,10,08,12,52,15.00
2014,10,08,12,53,15.10
2014,10,08,12,54,15.10
2014,10,08,12,55,15.10
2014,10,08,12,56,15.20
2014,10,08,12,57,15.20
2014,10,08,12,58,15.20
2014,10,08,12,59,15.30
2014,10,08,13,00,15.30
2014,10,08,13,01,15.30
2014,10,08,13,02,15.40
2014,10,08,13,03,15.40
2014,10,08,13,04,15.40
2014,10,08,13,05,15.40
2014,10,08,13,06,15.40
2014,10,08,13,07,15.40
2014,10,08,13,08,15.40
2014,10,08,13,09,15.50
2014,10,08,13,10,15.50
2014,10,08,13,11,15.40
2014,10,08,13,12,15.50
2014,10,08,13,13,15.50
2014,10,08,13,14,15.40
2014,10,08,13,15,15.50
2014,10,08,13,16,15.50
2014,10,08,13,17,15.50
2014,10,08,13,18,15.50
2014,10,08,13,19,15.50
2014,10,08,13,20,15.40
2014,10,08,13,21,15.50
2014,10,08,13,22,15.50
2014,10,08,13,23,15.50
2014,10,08,13,24,15.50
2014,10,08,13,25,15.50
2014,10,08,13,26,15.50
2014,10,08,13,27,15.50
2014,10,08,13,28,15.50
2014,10,08,13,29,15.50
2014,10,08,13,30,15.50
2014,10,08,13,31,15.50
2014,10,08,13,32,15.50
2014,10,08,13,33,15.50
2014,10,08,13,34,15.50
2014,10,08,13,35,15.50
2014,10,08,13,36,15.50
2014,10,08,13,37,15.50
2014,10,08,13,38,15.50
2014,10,08,13,39,15.50
2014,10,08,13,40,15.60
2014,10,08,13,41,15.60
2014,10,08,13,42,15.60
2014,10,08,13,43,15.60
2014,10,08,13,44,15.60
2014,10,08,13,45,15.60
2014,10,08,13,46,15.60
2014,10,08,13,47,15.70
2014,10,08,13,48,15.70
2014,10,08,13,49,15.70
2014,10,08,13,50,15.80
2014,10,08,13,51,15.80
2014,10,08,13,52,15.80
2014,10,08,13,53,15.80
2014,10,08,13,54,15.80
2014,10,08,13,55,15.90
2014,10,08,13,56,15.90
2014,10,08,13,57,15.90
2014,10,08,13,58,16.00
2014,10,08,13,59,16.00
2014,10,08,14,00,16.10
2014,10,08,14,01,16.10
2014,10,08,14,02,16.20
2014,10,08,14,03,16.20
2014,10,08,14,04,16.20
2014,10,08,14,05,16.20
2014,10,08,14,06,16.20
2014,10,08,14,07,16.20
2014,10,08,14,08,16.20
2014,10,08,14,09,16.20
2014,10,08,14,10,16.20
2014,10,08,14,11,16.20
2014,10,08,14,12,16.20
2014,10,08,14,13,16.20
2014,10,08,14,14,16.20
2014,10,08,14,15,16.20
2014,10,08,14,16,16.20
2014,10,08,14,17,16.20
2014,10,08,14,18,16.20
2014,10,08,14,19,16.20
2014,10,08,14,20,16.20
2014,10,08,14,21,16.20
2014,10,08,14,22,16.20
2014,10,08,14,23,16.30
2014,10,08,14,24,16.30
2014,10,08,14,25,16.20
2014,10,08,14,26,16.20
2014,10,08,14,27,16.20
2014,10,08,14,28,16.20
2014,10,08,14,29,16.20
2014,10,08,14,30,16.20
2014,10,08,14,31,16.20
2014,10,08,14,32,16.20
2014,10,08,14,33,16.20
2014,10,08,14,34,16.20
2014,10,08,14,35,16.20
2014,10,08,14,36,16.20
2014,10,08,14,37,16.20
2014,10,08,14,38,16.20
2014,10,08,14,39,16.20
2014,10,08,14,40,16.20
2014,10,08,14,41,16.20
2014,10,08,14,42,16.20
2014,10,08,14,43,16.20
2014,10,08,14,44,16.20
2014,10,08,14,45,16.30
2014,10,08,14,46,16.30
2014,10,08,14,47,16.30
2014,10,08,14,48,16.30
2014,10,08,14,49,16.30
2014,10,08,14,50,16.30
2014,10,08,14,51,16.30
2014,10,08,14,52,16.40
2014,10,08,14,53,16.40
2014,10,08,14,54,16.40
2014,10,08,14,55,16.40
2014,10,08,14,56,16.40
2014,10,08,14,57,16.40
2014,10,08,14,58,16.40
2014,10,08,14,59,16.40
2014,10,08,15,00,16.40
2014,10,08,15,01,16.40
2014,10,08,15,02,16.40
2014,10,08,15,03,16.40
2014,10,08,15,04,16.40
2014,10,08,15,05,16.40
2014,10,08,15,06,16.50
2014,10,08,15,07,16.50
2014,10,08,15,08,16.50
2014,10,08,15,09,16.50
2014,10,08,15,10,16.60
2014,10,08,15,11,16.60
2014,10,08,15,12,16.60
2014,10,08,15,13,16.60
2014,10,08,15,14,16.60
2014,10,08,15,15,16.60
2014,10,08,15,16,16.60
2014,10,08,15,17,16.60
2014,10,08,15,18,16.60
2014,10,08,15,19,16.60
2014,10,08,15,20,16.60
2014,10,08,15,21,16.60
2014,10,08,15,22,16.60
2014,10,08,15,23,16.60
2014,10,08,15,24,16.60
2014,10,08,15,25,16.60
2014,10,08,15,26,16.60
2014,10,08,15,27,16.60
2014,10,08,15,28,16.60
2014,10,08,15,29,16.60
2014,10,08,15,30,16.60
2014,10,08,15,31,16.60
2014,10,08,15,32,16.60
2014,10,08,15,33,16.60
2014,10,08,15,34,16.70
2014,10,08,15,35,16.70
2014,10,08,15,36,16.70
2014,10,08,15,37,16.70
2014,10,08,15,38,16.70
2014,10,08,15,39,16.80
2014,10,08,15,40,16.80
2014,10,08,15,41,16.80
2014,10,08,15,42,16.80
2014,10,08,15,43,16.80
2014,10,08,15,44,16.90
2014,10,08,15,45,16.90
2014,10,08,15,46,16.90
2014,10,08,15,47,16.90
2014,10,08,15,48,16.90
2014,10,08,15,49,16.90
2014,10,08,15,50,16.90
2014,10,08,15,51,16.90
2014,10,08,15,52,16.90
2014,10,08,15,53,16.90
2014,10,08,15,54,16.90
2014,10,08,15,55,16.90
2014,10,08,15,56,16.90
2014,10,08,15,57,16.90
2014,10,08,15,58,16.90
2014,10,08,15,59,16.80
2014,10,08,16,00,16.80
2014,10,08,16,01,16.80
2014,10,08,16,02,16.80
2014,10,08,16,03,16.70
2014,10,08,16,04,16.70
2014,10,08,16,05,16.70
2014,10,08,16,06,16.70
2014,10,08,16,07,16.70
2014,10,08,16,08,16.70
2014,10,08,16,09,16.70
2014,10,08,16,10,16.70
2014,10,08,16,11,16.70
2014,10,08,16,12,16.60
2014,10,08,16,13,16.60
2014,10,08,16,14,16.60
2014,10,08,16,15,16.50
2014,10,08,16,16,16.50
2014,10,08,16,17,16.50
2014,10,08,16,18,16.50
2014,10,08,16,19,16.50
2014,10,08,16,20,16.50
2014,10,08,16,21,16.60
2014,10,08,16,22,16.60
2014,10,08,16,23,16.60
2014,10,08,16,24,16.60
2014,10,08,16,25,16.60
2014,10,08,16,26,16.70
2014,10,08,16,27,16.70
2014,10,08,16,28,16.80
2014,10,08,16,29,16.80
2014,10,08,16,30,16.90
2014,10,08,16,31,16.90
2014,10,08,16,32,17.00
2014,10,08,16,33,17.10
2014,10,08,16,34,17.10
2014,10,08,16,35,17.20
2014,10,08,16,36,17.20
2014,10,08,16,37,17.30
2014,10,08,16,38,17.30
2014,10,08,16,39,17.30
2014,10,08,16,40,17.30
2014,10,08,16,41,17.30
2014,10,08,16,42,17.40
2014,10,08,16,43,17.40
2014,10,08,16,44,17.40
2014,10,08,16,45,17.50
2014,10,08,16,46,17.50
2014,10,08,16,47,17.60
2014,10,08,16,48,17.60
2014,10,08,16,49,17.70
2014,10,08,16,50,17.70
2014,10,08,16,51,17.80
2014,10,08,16,52,17.80
2014,10,08,16,53,17.80
2014,10,08,16,54,17.90
2014,10,08,16,55,17.90
2014,10,08,16,56,17.90
2014,10,08,16,57,17.90
2014,10,08,16,58,17.90
2014,10,08,16,59,17.90
2014,10,08,17,00,17.80
2014,10,08,17,01,17.70
2014,10,08,17,02,17.70
2014,10,08,17,03,17.60
2014,10,08,17,04,17.50
2014,10,08,17,05,17.50
2014,10,08,17,06,17.50
2014,10,08,17,07,17.40
2014,10,08,17,08,17.30
2014,10,08,17,09,17.30
2014,10,08,17,10,17.30
2014,10,08,17,11,17.30
2014,10,08,17,12,17.30
2014,10,08,17,13,17.30
2014,10,08,17,14,17.30
2014,10,08,17,15,17.30
2014,10,08,17,16,17.20
2014,10,08,17,17,17.20
2014,10,08,17,18,17.20
2014,10,08,17,19,17.20
2014,10,08,17,20,17.10
2014,10,08,17,21,17.10
2014,10,08,17,22,17.10